Location: Krakow
(50.0830°N, 19.9170°E)
Time: 13:17:32
(UTC+02:00)

A-11 Canister half - Pass Details

Date: 03 June 2024
Orbit: 1515 x 1684 km, 47.2° (Epoch: 18 May)

Event Time Altitude Azimuth Distance (km) Brightness Sun altitude
Rises 22:14:47 0° 201° (SSW) 4,870 11.3 -10.8°
Reaches altitude 10° 22:18:29 10° 191° (SSW) 3,863 10.7 -11.1°
Maximum altitude 22:26:26 29° 137° (SE) 2,614 9.7 -11.8°
Drops below altitude 10° 22:34:11 10° 82° (E) 3,764 10.8 -12.4°
Sets 22:37:43 0° 72° (ENE) 4,727 11.5 -12.7°
